Regional Weather Roundup
Issued by NWS Portland, ME

Current Version | Previous Version | Text Only | Print | Product List | Glossary Off
Versions: 1 2 3 4 5 6 7 8 9 10 11 12 13 14 15 16 17 18 19 20 21 22 23 24 25 26 27 28 29 30 31 32 33 34 35 36 37 38 39 40 41 42 43 44 45 46 47 48 49 50
000 ASUS41 KGYX 181605 RWRGYX WEATHER ROUNDUP FOR MAINE AND NEW HAMPSHIRE NATIONAL WEATHER SERVICE GRAY ME 1100 AM EST FRI JAN 18 2019 MEZ002-005-006-010-012-015-018-020-021-024-026-027-029-181700- MAINE CITY SKY/WX TMP DP RH WIND PRES REMARKS PORTLAND CLOUDY 25 11 55 CALM 30.14F SANFORD CLOUDY 23 11 60 CALM 30.13F BAR HARBOR MIX PCPN 31 23 72 S17G24 30.15F WCI 19 WISCASSET CLOUDY 26 17 68 CALM 30.15F ROCKLAND LGT SNOW 32 26 78 S14G22 30.13F FRYEBURG CLOUDY 17 6 62 CALM 30.11F LEWISTONAUBURN CLOUDY 17 6 62 CALM 30.13F AUGUSTA CLOUDY 18 11 74 CALM 30.12F WATERVILLE PTSUNNY 16 7 67 MISG 30.09F BANGOR LGT SNOW 24 21 88 S3 30.13F FOG GREENVILLE N/A 13 7 77 SE10 29.98F WCI 0 MILLINOCKET SNOW 13 7 77 N5 30.13F VSB 1/2 HOULTON CLOUDY 7 0 73 N5 30.10F PRESQUE ISLE LGT SNOW 10 2 69 SE7 30.09F FRENCHVILLE LGT SNOW 6 -1 73 SE10 30.01F WCI -9 CARIBOU LGT SNOW 7 1 76 S9 30.07F $$ NHZ002-005-008-009-011-012-014-181700- NEW HAMPSHIRE CITY SKY/WX TMP DP RH WIND PRES REMARKS PORTSMOUTH CLOUDY 28 12 50 CALM 30.12F ROCHESTER CLOUDY 26 12 55 CALM 30.11F NASHUA CLOUDY 26 13 57 CALM 30.13F MANCHESTER CLOUDY 27 12 53 CALM 30.11F CONCORD CLOUDY 22 13 68 CALM 30.11F LACONIA CLOUDY 19 8 62 CALM 30.10F PLYMOUTH CLOUDY 18 13 79 CALM 30.11F BERLIN CLOUDY 20 12 71 CALM 30.00F WHITEFIELD CLOUDY 20 14 77 CALM 30.01F JAFFREY CLOUDY 30 24 78 S12 30.05F KEENE CLOUDY 27 18 69 W3 30.09F LEBANON LGT SNOW 24 15 68 CALM 30.06F MT WASHINGTON SNOWSHWR 9 9 100 W38G48 N/A VSB 1/16WCI -16 $$ VTZ005-007-008-181700- VERMONT CITY SKY/WX TMP DP RH WIND PRES REMARKS ST JOHNSBURY N/A 22 17 81 MISG 30.02F MONTPELIER CLOUDY 22 16 78 S8 30.02F BURLINGTON LGT SNOW 27 20 75 S13G21 29.99F WCI 16 $$ MAZ007-012-024-CTZ003-RIZ002-NYZ038-NYZ072-181700- SOUTHERN NEW ENGLAND AND NY CITY SKY/WX TMP DP RH WIND PRES REMARKS BOSTON CLOUDY 36 26 67 SE7 30.13F WORCESTER CLOUDY 27 21 78 SE5 30.07F NANTUCKET LGT RAIN 34 34 100 E10 30.10F PROVIDENCE PTSUNNY 34 26 72 VRB3 30.13F HARTFORD CLOUDY 30 18 60 CALM 30.12F ALBANY FLURRIES 30 22 72 S10 30.08S NEW YORK CITY CLOUDY 35 31 85 NE5 30.12S $$ ANZ081-ANZ082-ANZ150-NHZ014-MEZ023>029-181700- COASTAL MARINE OBSERVATIONS STATION/POSITION TIME TEMP WIND PRES WAVE AIR SEA DIR/SP/G HT/PER (UTC) (F) (DEG/KT/KT) (MB) (FT/S) MOUNT DESERT ROC 1500 31 130/ 22/ 24 1022.6F MATINICUS ROCK 1500 33 150/ 27/ 31 1020.6F ISLE OF SHOALS 1500 34 180/ 10/ 12 1020.5F JEFFREYS LEDGE 1538 44 N/A 2/ 4 CASHES LEDGE BUO 1550 35 40 1020.6F 3/ 4 $$ .............KEY.............. WCI - WIND CHILL TC - TEMPERATURE IN CELSIUS VSB - VISIBILITY IN MILES HX - HEAT INDEX FAIR- INDICATES FEW OR NO CLOUDS BELOW 12,000 FT, WITH NO SIGNIFICANT WEATHER AND/OR OBSTRUCTIONS TO VISIBILITY.

USA.gov is the U.S. government's official web portal to all federal, state and local government web resources and services.